User: anonymous   Login
Location: Bodest
(46.3000°N, 22.5667°E)
Time: 07:46:35
(UTC+00:00)
Language:

Cosmos 839 Rocket - Orbit

View from above orbital plane
View from above orbital plane
View from above satellite
View from above satellite

Ground track
Ground track

The orbit data is extracted from the following two-line orbital elements,

1 09013U 76067B   22024.89398527 -.00000057  00000-0 -99298-5 0  9996
2 09013  65.8669 339.2131 0708450 134.5339 231.5811 12.35346002 54140
Epoch (UTC): 24 January 2022 21:27:20
Eccentricity: 0.0708450
inclination: 65.8669°
perigee height: 966 km
apogee height: 2086 km
right ascension of ascending node: 339.2131°
argument of perigee: 134.5339°
revolutions per day: 12.35346002
mean anomaly at epoch: 231.5811°
orbit number at epoch: 5414

The dashed part of the orbit path shows where the satellite is in the earth's shadow,  

DLR